When you browse on this site, cookies collect data to enhance your experience and personalize the content and advertising you see.
Visit our Privacy Policy to learn more. By continuing to use the site, you agree to this use of cookies and data.
  • In Belgien
  • Länderverzeichnis
  • Für 7 Tage
  • Wassertemperatur
  • Wetterkarte
  • Widgets
  • user-avatar
    Anmelden

    Stündliche Wetter Albany

    Heute, 12 Dezember, Donnerstag

    Zeit Temperatur Niederschläge Wind Luftdruck Luftfeuchtigkeit
    00:00 +15°C° 0 mm 5 m/S 763 mmHg 89%
    01:00 +14°C° 0 mm 5 m/S 763 mmHg 90%
    02:00 +14°C° 0 mm 5 m/S 763 mmHg 91%
    03:00 +14°C° 0 mm 5 m/S 763 mmHg 92%
    04:00 +14°C° 0 mm 5 m/S 763 mmHg 92%
    05:00 +14°C° 0 mm 5 m/S 763 mmHg 93%
    06:00 +16°C° 0 mm 5 m/S 763 mmHg 84%
    07:00 +19°C° 0 mm 5 m/S 763 mmHg 75%
    08:00 +21°C° 0 mm 5 m/S 763 mmHg 64%
    09:00 +23°C° 0 mm 5 m/S 763 mmHg 57%
    10:00 +26°C° 0 mm 6 m/S 763 mmHg 51%
    11:00 +28°C° 0 mm 6 m/S 763 mmHg 44%
    12:00 +28°C° 0 mm 6 m/S 762 mmHg 44%
    13:00 +29°C° 0 mm 7 m/S 762 mmHg 44%
    14:00 +29°C° 0 mm 7 m/S 761 mmHg 44%
    15:00 +28°C° 0 mm 7 m/S 761 mmHg 46%
    16:00 +27°C° 0 mm 7 m/S 761 mmHg 48%
    17:00 +24°C° 0 mm 7 m/S 761 mmHg 51%
    18:00 +22°C° 0 mm 7 m/S 761 mmHg 57%
    19:00 +20°C° 0 mm 6 m/S 761 mmHg 63%
    20:00 +17°C° 0 mm 6 m/S 761 mmHg 69%
    21:00 +17°C° 0 mm 6 m/S 761 mmHg 73%
    22:00 +16°C° 0 mm 5 m/S 761 mmHg 78%
    23:00 +15°C° 0 mm 5 m/S 762 mmHg 82%

    Morgen, 13 Dezember, Freitag

    Zeit Temperatur Niederschläge Wind Luftdruck Luftfeuchtigkeit
    00:00 +15°C° 0 mm 5 m/S 761 mmHg 85%
    01:00 +15°C° 0 mm 5 m/S 761 mmHg 88%
    02:00 +14°C° 0 mm 5 m/S 760 mmHg 91%
    03:00 +14°C° 0 mm 4 m/S 760 mmHg 90%
    04:00 +14°C° 0 mm 4 m/S 760 mmHg 89%
    05:00 +14°C° 0 mm 3 m/S 760 mmHg 88%
    06:00 +19°C° 0 mm 3 m/S 760 mmHg 72%
    07:00 +24°C° 0 mm 3 m/S 760 mmHg 56%
    08:00 +27°C° 0 mm 3 m/S 760 mmHg 41%
    09:00 +30°C° 0 mm 3 m/S 760 mmHg 36%
    10:00 +33°C° 0 mm 3 m/S 759 mmHg 31%
    11:00 +36°C° 0 mm 3 m/S 759 mmHg 26%
    12:00 +35°C° 0 mm 4 m/S 759 mmHg 29%
    13:00 +34°C° 0 mm 4 m/S 758 mmHg 32%
    14:00 +33°C° 0 mm 5 m/S 757 mmHg 36%
    15:00 +32°C° 0 mm 4 m/S 757 mmHg 38%
    16:00 +30°C° 0 mm 4 m/S 757 mmHg 41%
    17:00 +28°C° 0 mm 4 m/S 757 mmHg 43%
    18:00 +26°C° 0 mm 3 m/S 757 mmHg 48%
    19:00 +25°C° 0 mm 3 m/S 758 mmHg 52%
    20:00 +22°C° 0 mm 3 m/S 758 mmHg 56%
    21:00 +21°C° 0 mm 2 m/S 758 mmHg 56%
    22:00 +21°C° 0 mm 1 m/S 758 mmHg 57%
    23:00 +21°C° 0 mm 1 m/S 758 mmHg 57%

    übermorgen, 14 Dezember, Samstag

    Zeit Temperatur Niederschläge Wind Luftdruck Luftfeuchtigkeit
    00:00 +20°C° 0 mm 1 m/S 757 mmHg 57%
    01:00 +20°C° 0 mm 1 m/S 757 mmHg 58%
    02:00 +20°C° 0 mm 1 m/S 756 mmHg 58%
    03:00 +19°C° 0 mm 1 m/S 756 mmHg 62%
    04:00 +19°C° 0 mm 1 m/S 756 mmHg 65%
    05:00 +18°C° 0 mm 1 m/S 756 mmHg 69%
    06:00 +22°C° 0 mm 1 m/S 756 mmHg 60%
    07:00 +23°C° 0 mm 0 m/S 756 mmHg 50%
    08:00 +27°C° 0 mm 0 m/S 755 mmHg 41%
    09:00 +30°C° 0 mm 1 m/S 755 mmHg 39%
    10:00 +31°C° 0 mm 2 m/S 755 mmHg 36%
    11:00 +33°C° 0 mm 3 m/S 755 mmHg 34%
    12:00 +33°C° 0 mm 3 m/S 754 mmHg 35%
    13:00 +33°C° 0 mm 4 m/S 753 mmHg 35%
    14:00 +33°C° 0 mm 4 m/S 753 mmHg 36%
    15:00 +30°C° 0 mm 4 m/S 753 mmHg 40%
    16:00 +28°C° 0 mm 3 m/S 753 mmHg 44%
    17:00 +27°C° 0 mm 3 m/S 752 mmHg 48%
    18:00 +25°C° 0 mm 2 m/S 753 mmHg 57%
    19:00 +21°C° 0 mm 2 m/S 753 mmHg 66%
    20:00 +20°C° 0 mm 1 m/S 753 mmHg 76%
    21:00 +20°C° 0 mm 1 m/S 753 mmHg 76%
    22:00 +18°C° 0 mm 2 m/S 754 mmHg 76%
    23:00 +18°C° 0 mm 2 m/S 754 mmHg 76%

    15 Dezember, Sonntag

    Zeit Temperatur Niederschläge Wind Luftdruck Luftfeuchtigkeit
    00:00 +18°C° 0 mm 2 m/S 753 mmHg 73%
    01:00 +18°C° 0 mm 2 m/S 752 mmHg 69%
    02:00 +18°C° 0 mm 2 m/S 752 mmHg 65%
    03:00 +18°C° 0 mm 2 m/S 751 mmHg 61%
    04:00 +19°C° 0 mm 2 m/S 751 mmHg 58%
    05:00 +19°C° 0 mm 2 m/S 751 mmHg 54%
    06:00 +24°C° 0 mm 2 m/S 751 mmHg 46%
    07:00 +27°C° 0 mm 2 m/S 750 mmHg 37%
    08:00 +31°C° 0 mm 2 m/S 750 mmHg 28%
    09:00 +34°C° 0 mm 2 m/S 750 mmHg 25%
    10:00 +36°C° 0 mm 3 m/S 749 mmHg 22%
    11:00 +38°C° 0 mm 3 m/S 749 mmHg 20%
    12:00 +37°C° 0 mm 4 m/S 748 mmHg 24%
    13:00 +35°C° 0 mm 4 m/S 748 mmHg 29%
    14:00 +33°C° 0 mm 5 m/S 747 mmHg 33%
    15:00 +32°C° 0 mm 5 m/S 747 mmHg 35%
    16:00 +30°C° 0 mm 4 m/S 748 mmHg 38%
    17:00 +28°C° 0 mm 4 m/S 748 mmHg 40%
    18:00 +26°C° 0 mm 4 m/S 749 mmHg 48%
    19:00 +23°C° 0 mm 4 m/S 749 mmHg 57%
    20:00 +21°C° 0 mm 5 m/S 750 mmHg 65%
    21:00 +20°C° 0 mm 4 m/S 751 mmHg 70%
    22:00 +19°C° 0 mm 4 m/S 751 mmHg 76%
    23:00 +19°C° 0 mm 4 m/S 751 mmHg 81%

    16 Dezember, Montag

    Zeit Temperatur Niederschläge Wind Luftdruck Luftfeuchtigkeit
    00:00 +18°C° 0 mm 3 m/S 751 mmHg 83%
    01:00 +17°C° 0 mm 3 m/S 751 mmHg 85%
    02:00 +17°C° 0 mm 2 m/S 751 mmHg 88%
    03:00 +17°C° 0 mm 2 m/S 751 mmHg 87%
    04:00 +16°C° 0 mm 2 m/S 751 mmHg 87%
    05:00 +16°C° 0 mm 2 m/S 751 mmHg 87%
    06:00 +18°C° 0 mm 3 m/S 752 mmHg 80%
    07:00 +19°C° 0 mm 3 m/S 752 mmHg 72%
    08:00 +21°C° 0 mm 4 m/S 753 mmHg 64%
    09:00 +22°C° 0 mm 4 m/S 753 mmHg 60%
    10:00 +23°C° 0 mm 4 m/S 753 mmHg 55%
    11:00 +26°C° 0 mm 4 m/S 753 mmHg 51%
    12:00 +26°C° 0 mm 4 m/S 753 mmHg 51%
    13:00 +26°C° 0 mm 4 m/S 752 mmHg 52%
    14:00 +26°C° 0 mm 4 m/S 752 mmHg 53%
    15:00 +23°C° 0 mm 5 m/S 752 mmHg 59%
    16:00 +22°C° 0 mm 6 m/S 752 mmHg 65%
    17:00 +21°C° 0 mm 6 m/S 753 mmHg 70%
    18:00 +20°C° 0 mm 5 m/S 753 mmHg 76%
    19:00 +19°C° 0 mm 4 m/S 753 mmHg 81%
    20:00 +18°C° 0 mm 4 m/S 754 mmHg 86%
    21:00 +18°C° 0 mm 3 m/S 754 mmHg 87%
    22:00 +18°C° 0 mm 3 m/S 755 mmHg 87%
    23:00 +18°C° 0 mm 2 m/S 755 mmHg 87%

    17 Dezember, Dienstag

    Zeit Temperatur Niederschläge Wind Luftdruck Luftfeuchtigkeit
    00:00 +17°C° 0 mm 2 m/S 755 mmHg 90%
    01:00 +16°C° 0 mm 1 m/S 755 mmHg 92%
    02:00 +15°C° 0 mm 1 m/S 755 mmHg 94%
    03:00 +15°C° 0 mm 1 m/S 755 mmHg 94%
    04:00 +15°C° 0 mm 1 m/S 755 mmHg 94%
    05:00 +15°C° 0 mm 1 m/S 755 mmHg 94%
    06:00 +18°C° 0 mm 1 m/S 756 mmHg 82%
    07:00 +21°C° 0 mm 1 m/S 756 mmHg 69%
    08:00 +23°C° 0 mm 1 m/S 756 mmHg 57%
    09:00 +25°C° 0 mm 2 m/S 756 mmHg 55%
    10:00 +26°C° 0 mm 2 m/S 756 mmHg 52%
    11:00 +27°C° 0 mm 3 m/S 756 mmHg 49%
    12:00 +27°C° 0 mm 3 m/S 756 mmHg 51%
    13:00 +26°C° 0 mm 4 m/S 756 mmHg 54%
    14:00 +26°C° 0 mm 4 m/S 756 mmHg 56%
    15:00 +25°C° 0 mm 4 m/S 756 mmHg 59%
    16:00 +23°C° 0 mm 4 m/S 756 mmHg 62%
    17:00 +22°C° 0 mm 4 m/S 756 mmHg 65%
    18:00 +21°C° 0 mm 3 m/S 756 mmHg 74%
    19:00 +19°C° 0 mm 3 m/S 757 mmHg 82%
    20:00 +18°C° 0 mm 2 m/S 758 mmHg 91%
    21:00 +17°C° 0 mm 2 m/S 758 mmHg 92%
    22:00 +18°C° 0 mm 1 m/S 758 mmHg 93%
    23:00 +16°C° 0 mm 1 m/S 758 mmHg 94%
    Mehr zeigen